Coleman, TX

4:52 AM CST on February 22, 2017 (GMT -0600)
Coleman Municipal

Weather History for KCOM - November, 2012

Change the Weather History Date:

Monday, November 5, 2012

  Actual Average (KABI) Record (KABI)
Temperature  
Mean Temperature 62 °F -  
Max Temperature 76 °F 65 °F 90 °F (2007)
Min Temperature 47 °F 45 °F 26 °F (1992)
Degree Days  
Heating Degree Days 4    
Growing Degree Days 12 (Base 50)    
Moisture  
Dew Point 42 °F    
Average Humidity 55    
Maximum Humidity 86    
Minimum Humidity 24    
Precipitation  
Precipitation 0.00 in - - ()
Sea Level Pressure  
Sea Level Pressure 30.10 in    
Wind  
Wind Speed 6 mph (North)    
Max Wind Speed 21 mph    
Max Gust Speed 24 mph    
Visibility 10 miles    
Events      
Averages and records for this station are not official NWS values.
T = Trace of Precipitation, MM = Missing Value Source: NWS Daily Summary

Daily Weather History Graph

Daily Weather History Graph

Search for Another Location

Airport or City:

Trip Planner

Search our weather history database for the weather conditions in past years. The results will help you decide how hot, cold, wet, or windy it might be!

Date:

Astronomy

Nov. 05, 2012 Rise Set
Actual Time 6:57 AM CST 5:44 PM CST
Civil Twilight 6:32 AM CST 6:09 PM CST
Nautical Twilight 6:03 AM CST 6:38 PM CST
Astronomical Twilight 5:34 AM CST 7:07 PM CST
Moon 11:22 PM CST (11/5) 12:17 PM CST (11/5)
Length of Visible Light 11h 37m
Length of Day
10h 46m
Waning Gibbous, 62% of the Moon is Illuminated
Nov 5
Waning Gibbous
Nov 6
Last Quarter
Nov 13
New
Nov 20
First Quarter
Nov 28
Full

Hourly Weather History & Observations

Time (CST) Temp. Dew Point Humidity Pressure Visibility Wind Dir Wind Speed Gust Speed Precip Events Conditions
12:15 AM 52.2 °F 45.5 °F 78% 30.10 in 10.0 mi WNW 3.5 mph - N/A   Clear
12:35 AM 51.8 °F 45.5 °F 79% 30.11 in 10.0 mi WNW 5.8 mph - N/A   Clear
12:55 AM 51.8 °F 45.3 °F 79% 30.10 in 10.0 mi West 4.6 mph - N/A   Clear
1:15 AM 51.3 °F 45.0 °F 79% 30.09 in 10.0 mi Calm Calm - N/A   Clear
1:35 AM 50.4 °F 44.4 °F 80% 30.09 in 10.0 mi West 3.5 mph - N/A   Clear
1:55 AM 50.7 °F 45.1 °F 81% 30.09 in 10.0 mi West 5.8 mph - N/A   Clear
2:15 AM 51.3 °F 45.5 °F 81% 30.09 in 10.0 mi West 4.6 mph - N/A   Clear
2:35 AM 51.4 °F 45.5 °F 80% 30.08 in 10.0 mi WNW 5.8 mph - N/A   Clear
2:55 AM 51.6 °F 45.3 °F 79% 30.08 in 10.0 mi Calm Calm - N/A   Clear
3:15 AM 50.7 °F 44.2 °F 78% 30.08 in 10.0 mi Calm Calm - N/A   Clear
3:35 AM 49.8 °F 44.6 °F 82% 30.07 in 10.0 mi Calm Calm - N/A   Clear
3:55 AM 49.8 °F 44.8 °F 83% 30.06 in 10.0 mi Calm Calm - N/A   Clear
4:15 AM 50.5 °F 45.0 °F 81% 30.06 in 10.0 mi Calm Calm - N/A   Clear
4:35 AM 50.0 °F 44.6 °F 82% 30.06 in 10.0 mi Calm Calm - N/A   Clear
4:55 AM 48.9 °F 44.1 °F 83% 30.06 in 10.0 mi WNW 3.5 mph - N/A   Clear
5:35 AM 47.7 °F 41.4 °F 79% 30.07 in 10.0 mi Calm Calm - N/A   Clear
5:55 AM 48.4 °F 42.8 °F 81% 30.07 in 10.0 mi Calm Calm - N/A   Clear
6:15 AM 48.4 °F 44.1 °F 85% 30.08 in 10.0 mi Calm Calm - N/A   Clear
6:35 AM 48.0 °F 43.5 °F 84% 30.09 in 10.0 mi Calm Calm - N/A   Clear
6:55 AM 47.5 °F 43.3 °F 86% 30.10 in 10.0 mi Calm Calm - N/A   Clear
7:15 AM 48.2 °F 43.9 °F 85% 30.10 in 10.0 mi Calm Calm - N/A   Clear
7:35 AM 49.3 °F 44.8 °F 84% 30.10 in 7.0 mi Calm Calm - N/A   Clear
7:55 AM 51.1 °F 45.5 °F 81% 30.11 in 7.0 mi Calm Calm - N/A   Clear
8:15 AM 55.0 °F 47.7 °F 76% 30.10 in 10.0 mi Calm Calm - N/A   Clear
8:35 AM 59.4 °F 49.8 °F 71% 30.11 in 7.0 mi SW 3.5 mph - N/A   Clear
8:55 AM 63.1 °F 51.3 °F 65% 30.11 in 10.0 mi Calm Calm - N/A   Clear
9:15 AM 66.2 °F 52.5 °F 61% 30.12 in 10.0 mi NW 5.8 mph - N/A   Clear
9:35 AM 68.4 °F 50.5 °F 53% 30.12 in 10.0 mi NNW 13.8 mph - N/A   Clear
9:55 AM 68.5 °F 49.5 °F 50% 30.12 in 10.0 mi NNW 11.5 mph 17.3 mph N/A   Clear
10:15 AM 68.7 °F 49.5 °F 50% 30.13 in 10.0 mi North 15.0 mph 19.6 mph N/A   Clear
10:35 AM 69.3 °F 49.1 °F 49% 30.13 in 10.0 mi North 13.8 mph - N/A   Clear
10:55 AM 69.8 °F 49.3 °F 48% 30.13 in 10.0 mi NNW 13.8 mph - N/A   Clear
11:15 AM 70.5 °F 49.6 °F 47% 30.12 in 10.0 mi NNE 13.8 mph 19.6 mph N/A   Clear
11:35 AM 70.9 °F 50.0 °F 48% 30.12 in 10.0 mi NNE 15.0 mph - N/A   Clear
11:55 AM 72.0 °F 49.8 °F 46% 30.11 in 10.0 mi NNE 16.1 mph 23.0 mph N/A   Clear
12:15 PM 73.8 °F 48.6 °F 41% 30.10 in 10.0 mi NNE 17.3 mph - N/A   Clear
12:35 PM 74.7 °F 46.2 °F 36% 30.09 in 10.0 mi NNE 16.1 mph - N/A   Clear
12:55 PM 75.6 °F 44.6 °F 33% 30.08 in 10.0 mi NNE 17.3 mph - N/A   Clear
1:15 PM 76.1 °F 42.3 °F 30% 30.08 in 10.0 mi NNE 20.7 mph 24.2 mph N/A   Clear
1:35 PM 76.1 °F 39.7 °F 27% 30.08 in 10.0 mi North 18.4 mph - N/A   Clear
1:55 PM 75.9 °F 40.6 °F 28% 30.08 in 10.0 mi NNE 15.0 mph 20.7 mph N/A   Clear
2:15 PM 76.1 °F 40.1 °F 27% 30.08 in 10.0 mi North 16.1 mph - N/A   Clear
2:35 PM 76.1 °F 39.4 °F 27% 30.07 in 7.0 mi NNE 17.3 mph - N/A   Clear
2:55 PM 76.1 °F 39.2 °F 26% 30.07 in 10.0 mi NNE 13.8 mph 18.4 mph N/A   Clear
3:15 PM 76.1 °F 38.8 °F 26% 30.07 in 10.0 mi NNE 15.0 mph 18.4 mph N/A   Clear
3:35 PM 76.3 °F 37.4 °F 25% 30.07 in 10.0 mi North 16.1 mph - N/A   Clear
3:55 PM 75.9 °F 36.9 °F 24% 30.07 in 10.0 mi NNE 12.7 mph - N/A   Clear
4:15 PM 75.4 °F 35.8 °F 24% 30.07 in 10.0 mi North 12.7 mph - N/A   Clear
4:35 PM 74.3 °F 36.0 °F 25% 30.07 in 10.0 mi NNE 12.7 mph - N/A   Clear
4:55 PM 73.4 °F 36.5 °F 26% 30.08 in 10.0 mi NNE 10.4 mph - N/A   Clear
5:15 PM 71.6 °F 36.3 °F 28% 30.08 in 10.0 mi NNE 8.1 mph - N/A   Clear
5:35 PM 69.1 °F 36.5 °F 30% 30.09 in 10.0 mi NNE 8.1 mph - N/A   Clear
5:55 PM 65.5 °F 36.7 °F 35% 30.10 in 10.0 mi NNE 5.8 mph - N/A   Clear
6:15 PM 63.9 °F 36.7 °F 37% 30.10 in 10.0 mi NNE 5.8 mph - N/A   Clear
6:35 PM 62.8 °F 36.1 °F 37% 30.11 in 10.0 mi North 5.8 mph - N/A   Clear
6:55 PM 62.4 °F 35.2 °F 36% 30.11 in 10.0 mi North 5.8 mph - N/A   Clear
7:15 PM 62.6 °F 35.4 °F 36% 30.12 in 10.0 mi North 3.5 mph - N/A   Clear
7:35 PM 59.5 °F 37.0 °F 43% 30.12 in 10.0 mi NW 3.5 mph - N/A   Clear
7:55 PM 58.8 °F 37.6 °F 45% 30.13 in 10.0 mi NNW 5.8 mph - N/A   Clear
8:15 PM 58.8 °F 37.6 °F 45% 30.12 in 10.0 mi NNW 4.6 mph - N/A   Clear
8:35 PM 59.7 °F 36.9 °F 43% 30.13 in 10.0 mi North 6.9 mph - N/A   Clear
8:55 PM 59.2 °F 36.7 °F 43% 30.14 in 10.0 mi North 6.9 mph - N/A   Clear
9:15 PM 55.9 °F 36.7 °F 48% 30.15 in 10.0 mi North 4.6 mph - N/A   Clear
9:35 PM 53.8 °F 36.9 °F 53% 30.15 in 10.0 mi Calm Calm - N/A   Clear
9:55 PM 52.5 °F 37.6 °F 57% 30.14 in 10.0 mi Calm Calm - N/A   Clear
10:15 PM 52.9 °F 37.8 °F 56% 30.15 in 10.0 mi Calm Calm - N/A   Clear
10:35 PM 51.8 °F 37.6 °F 58% 30.14 in 10.0 mi Calm Calm - N/A   Clear
10:55 PM 54.1 °F 36.9 °F 52% 30.14 in 10.0 mi NNW 3.5 mph - N/A   Clear
11:15 PM 51.8 °F 37.4 °F 58% 30.14 in 10.0 mi NNW 3.5 mph - N/A   Clear
11:35 PM 52.9 °F 36.5 °F 54% 30.15 in 10.0 mi North 4.6 mph - N/A   Clear
11:55 PM 51.3 °F 36.9 °F 58% 30.15 in 10.0 mi North 3.5 mph - N/A   Clear